Regional Weather Roundup
Issued by NWS Raleigh/Durham, NC

Current Version | Previous Version | Text Only | Print | Product List | Glossary On
Versions: 1 2 3 4 5 6 7 8 9 10 11 12 13 14 15 16 17 18 19 20 21 22 23 24 25 26 27 28 29 30 31 32 33 34 35 36 37 38 39 40 41 42 43 44 45 46 47 48 49 50
000
ASUS42 KRAH 271710
RWRRAH
NORTH CAROLINA WEATHER ROUNDUP
NATIONAL WEATHER SERVICE RALEIGH NC
100 PM EDT WED AUG 27 2014

NOTE: "FAIR" INDICATES FEW OR NO CLOUDS BELOW 12,000 FEET WITH NO
SIGNIFICANT WEATHER AND/OR OBSTRUCTIONS TO VISIBILITY.

NCZ001-053-055-056-065-067-271800-
WESTERN NORTH CAROLINA

CITY           SKY/WX    TMP DP  RH WIND       PRES   REMARKS
ASHEVILLE      SUNNY     79  58  48 N5        30.16F
JEFFERSON      SUNNY     72  49  43 N5        30.21F
MORGANTON      SUNNY     80  49  33 NW3       30.17F
HICKORY        SUNNY     80  55  42 CALM      30.12F
RUTHERFORDTON  SUNNY     81  59  47 CALM      30.12F
MOUNT AIRY     SUNNY     80  64  56 CALM      30.13F
BOONE          SUNNY     75  42  30 NE5       30.21F
$$

NCZ021-022-025-041-071-084-088-271800-
CENTRAL NORTH CAROLINA

CITY           SKY/WX    TMP DP  RH WIND       PRES   REMARKS
CHARLOTTE      MOSUNNY   82  59  45 N10G16    30.10F
GREENSBORO     MOSUNNY   82  58  43 N7        30.09F
WINSTON-SALEM  SUNNY     82  55  39 N7        30.11F
RALEIGH-DURHAM MOSUNNY   81  62  52 NE8       30.06F
FORT BRAGG     MOSUNNY   83  55  38 NE9       30.04F
FAYETTEVILLE   SUNNY     84  58  40 NE8       30.03F
BURLINGTON     SUNNY     84  55  36 N13       30.07F
LAURINBURG     SUNNY     85  55  35 E7        30.04F
$$

NCZ011-015-027-028-043-044-047-080-103-271800-
NORTHEASTERN NORTH CAROLINA

CITY           SKY/WX    TMP DP  RH WIND       PRES   REMARKS
ROCKY MT-WILSO SUNNY     81  61  50 N9        30.04F
GREENVILLE     SUNNY     81  70  69 N10       30.03F
WASHINGTON     MOSUNNY   82  69  65 N10       30.01F
ELIZABETH CITY MOSUNNY   81  70  69 NE12      30.01F
MANTEO         CLOUDY    80  72  78 N16G23    29.99S
CAPE HATTERAS  PTSUNNY   80  75  84 NE12G23   29.95F
$$

NCZ078-087-090-091-093-098-101-271800-
SOUTHEASTERN NORTH CAROLINA

CITY           SKY/WX    TMP DP  RH WIND       PRES   REMARKS
LUMBERTON      SUNNY     84  58  40 NE7       30.02F
GOLDSBORO      SUNNY     81  69  66 N8        30.01F
KINSTON        SUNNY     82  66  57 N9        30.02F
KENANSVILLE    SUNNY     82  64  54 N8        30.03F
NEW BERN       MOSUNNY   84  71  65 N12G18    30.00F
CHERRY POINT   PTSUNNY   83  70  64 N12       29.98F
BEAUFORT       PTSUNNY   84  72  67 N18       29.96F
JACKSONVILLE   MOSUNNY   85  69  58 NE13      29.99F
WILMINGTON     SUNNY     84  68  58 N10       29.99F
$$




USA.gov is the U.S. government's official web portal to all federal, state and local government web resources and services.